When you browse on this site, cookies collect data to enhance your experience and personalize the content and advertising you see.
Visit our Privacy Policy to learn more. By continuing to use the site, you agree to this use of cookies and data.
  • In Schweiz
  • Länderverzeichnis
  • Für 7 Tage
  • Wassertemperatur
  • Satellitenkarten
  • Wetterkarte
  • Widgets
  • user-avatar
    Anmelden

    Stündliche Wetter Tomas Barron

    Heute, 19 Februar, Dienstag

    Zeit Temperatur Niederschläge Wind Luftdruck Luftfeuchtigkeit
    00:00 +10°C° 0.1 mm 4 m/S 477 mmHg 77%
    01:00 +9°C° 0.1 mm 3 m/S 477 mmHg 79%
    02:00 +9°C° 0 mm 3 m/S 477 mmHg 80%
    03:00 +9°C° 0.2 mm 2 m/S 477 mmHg 80%
    04:00 +9°C° 0.2 mm 2 m/S 477 mmHg 79%
    05:00 +9°C° 0.2 mm 2 m/S 477 mmHg 79%
    06:00 +9°C° 0 mm 2 m/S 478 mmHg 76%
    07:00 +10°C° 0 mm 2 m/S 478 mmHg 73%
    08:00 +11°C° 0 mm 3 m/S 479 mmHg 69%
    09:00 +13°C° 0 mm 2 m/S 480 mmHg 62%
    10:00 +14°C° 0 mm 2 m/S 480 mmHg 55%
    11:00 +16°C° 0 mm 1 m/S 481 mmHg 48%
    12:00 +17°C° 0.1 mm 2 m/S 481 mmHg 45%
    13:00 +18°C° 0.1 mm 2 m/S 481 mmHg 42%
    14:00 +19°C° 0.1 mm 2 m/S 481 mmHg 38%
    15:00 +18°C° 0.6 mm 2 m/S 480 mmHg 40%
    16:00 +18°C° 0.6 mm 3 m/S 480 mmHg 42%
    17:00 +17°C° 0.6 mm 3 m/S 479 mmHg 44%
    18:00 +14°C° 3.5 mm 3 m/S 478 mmHg 55%
    19:00 +12°C° 3.5 mm 3 m/S 477 mmHg 66%
    20:00 +10°C° 3.5 mm 3 m/S 476 mmHg 77%
    21:00 +10°C° 1.4 mm 4 m/S 477 mmHg 74%
    22:00 +9°C° 1.4 mm 5 m/S 478 mmHg 71%
    23:00 +9°C° 1.4 mm 6 m/S 479 mmHg 68%

    Morgen, 20 Februar, Mittwoch

    Zeit Temperatur Niederschläge Wind Luftdruck Luftfeuchtigkeit
    00:00 +9°C° 0 mm 5 m/S 479 mmHg 69%
    01:00 +10°C° 0 mm 4 m/S 479 mmHg 71%
    02:00 +9°C° 0 mm 3 m/S 478 mmHg 72%
    03:00 +9°C° 0 mm 3 m/S 478 mmHg 73%
    04:00 +9°C° 0 mm 2 m/S 478 mmHg 74%
    05:00 +9°C° 0 mm 2 m/S 478 mmHg 74%
    06:00 +9°C° 0 mm 2 m/S 478 mmHg 72%
    07:00 +9°C° 0 mm 2 m/S 478 mmHg 70%
    08:00 +10°C° 0 mm 2 m/S 479 mmHg 68%
    09:00 +12°C° 0.1 mm 2 m/S 480 mmHg 62%
    10:00 +12°C° 0.1 mm 3 m/S 480 mmHg 56%
    11:00 +14°C° 0.1 mm 3 m/S 481 mmHg 50%
    12:00 +14°C° 0.1 mm 3 m/S 481 mmHg 47%
    13:00 +16°C° 0.1 mm 3 m/S 481 mmHg 44%
    14:00 +17°C° 0.1 mm 3 m/S 481 mmHg 42%
    15:00 +17°C° 0.1 mm 3 m/S 480 mmHg 43%
    16:00 +17°C° 0.1 mm 4 m/S 480 mmHg 43%
    17:00 +17°C° 0.1 mm 4 m/S 479 mmHg 44%
    18:00 +14°C° 0 mm 5 m/S 478 mmHg 51%
    19:00 +13°C° 0 mm 5 m/S 478 mmHg 58%
    20:00 +10°C° 0 mm 6 m/S 477 mmHg 65%
    21:00 +10°C° 0 mm 6 m/S 478 mmHg 65%
    22:00 +9°C° 0 mm 6 m/S 478 mmHg 65%
    23:00 +8°C° 0 mm 5 m/S 478 mmHg 65%

    übermorgen, 21 Februar, Donnerstag

    Zeit Temperatur Niederschläge Wind Luftdruck Luftfeuchtigkeit
    00:00 +8°C° 0 mm 5 m/S 478 mmHg 66%
    01:00 +8°C° 0 mm 4 m/S 478 mmHg 66%
    02:00 +8°C° 0 mm 4 m/S 477 mmHg 67%
    03:00 +9°C° 0.1 mm 3 m/S 477 mmHg 67%
    04:00 +8°C° 0.1 mm 3 m/S 477 mmHg 68%
    05:00 +8°C° 0.1 mm 2 m/S 477 mmHg 68%
    06:00 +9°C° 0 mm 2 m/S 478 mmHg 67%
    07:00 +10°C° 0 mm 1 m/S 478 mmHg 66%
    08:00 +10°C° 0 mm 1 m/S 479 mmHg 65%
    09:00 +12°C° 0 mm 1 m/S 480 mmHg 59%
    10:00 +13°C° 0 mm 1 m/S 481 mmHg 52%
    11:00 +15°C° 0 mm 2 m/S 482 mmHg 46%
    12:00 +16°C° 0.1 mm 3 m/S 482 mmHg 43%
    13:00 +17°C° 0.1 mm 4 m/S 482 mmHg 41%
    14:00 +18°C° 0.1 mm 4 m/S 482 mmHg 39%
    15:00 +17°C° 0.1 mm 5 m/S 481 mmHg 40%
    16:00 +17°C° 0.1 mm 5 m/S 481 mmHg 41%
    17:00 +17°C° 0.1 mm 5 m/S 480 mmHg 42%
    18:00 +15°C° 0.1 mm 5 m/S 480 mmHg 48%
    19:00 +14°C° 0.1 mm 5 m/S 479 mmHg 54%
    20:00 +12°C° 0.1 mm 5 m/S 479 mmHg 60%
    21:00 +12°C° 0 mm 5 m/S 479 mmHg 60%
    22:00 +12°C° 0 mm 5 m/S 480 mmHg 61%
    23:00 +10°C° 0 mm 5 m/S 480 mmHg 61%

    22 Februar, Freitag

    Zeit Temperatur Niederschläge Wind Luftdruck Luftfeuchtigkeit
    00:00 +10°C° 0 mm 4 m/S 479 mmHg 63%
    01:00 +10°C° 0 mm 4 m/S 479 mmHg 65%
    02:00 +9°C° 0 mm 3 m/S 478 mmHg 67%
    03:00 +9°C° 0 mm 3 m/S 478 mmHg 68%
    04:00 +8°C° 0 mm 3 m/S 478 mmHg 70%
    05:00 +8°C° 0 mm 2 m/S 478 mmHg 71%
    06:00 +8°C° 0 mm 2 m/S 478 mmHg 69%
    07:00 +9°C° 0 mm 2 m/S 479 mmHg 68%
    08:00 +10°C° 0 mm 1 m/S 479 mmHg 66%
    09:00 +11°C° 0 mm 1 m/S 480 mmHg 60%
    10:00 +13°C° 0 mm 1 m/S 481 mmHg 53%
    11:00 +14°C° 0 mm 2 m/S 482 mmHg 47%
    12:00 +16°C° 0 mm 2 m/S 482 mmHg 43%
    13:00 +17°C° 0 mm 2 m/S 482 mmHg 38%
    14:00 +18°C° 0 mm 2 m/S 482 mmHg 33%
    15:00 +18°C° 0 mm 3 m/S 482 mmHg 33%
    16:00 +18°C° 0 mm 3 m/S 481 mmHg 33%
    17:00 +18°C° 0 mm 3 m/S 481 mmHg 33%
    18:00 +17°C° 0 mm 4 m/S 481 mmHg 39%
    19:00 +14°C° 0 mm 5 m/S 480 mmHg 45%
    20:00 +13°C° 0 mm 5 m/S 480 mmHg 50%
    21:00 +12°C° 0 mm 5 m/S 480 mmHg 55%
    22:00 +10°C° 0 mm 5 m/S 480 mmHg 59%
    23:00 +10°C° 0 mm 4 m/S 479 mmHg 64%

    23 Februar, Samstag

    Zeit Temperatur Niederschläge Wind Luftdruck Luftfeuchtigkeit
    00:00 +10°C° 0 mm 4 m/S 479 mmHg 62%
    01:00 +9°C° 0 mm 3 m/S 479 mmHg 61%
    02:00 +9°C° 0 mm 3 m/S 478 mmHg 60%
    03:00 +8°C° 0 mm 2 m/S 478 mmHg 61%
    04:00 +8°C° 0 mm 2 m/S 477 mmHg 62%
    05:00 +7°C° 0 mm 2 m/S 477 mmHg 64%
    06:00 +8°C° 0 mm 2 m/S 478 mmHg 61%
    07:00 +9°C° 0 mm 2 m/S 478 mmHg 58%
    08:00 +9°C° 0 mm 2 m/S 479 mmHg 55%
    09:00 +12°C° 0 mm 1 m/S 480 mmHg 47%
    10:00 +14°C° 0 mm 1 m/S 481 mmHg 38%
    11:00 +16°C° 0 mm 1 m/S 482 mmHg 29%
    12:00 +18°C° 0 mm 1 m/S 482 mmHg 26%
    13:00 +18°C° 0 mm 2 m/S 482 mmHg 22%
    14:00 +19°C° 0 mm 3 m/S 482 mmHg 19%
    15:00 +20°C° 0 mm 3 m/S 481 mmHg 19%
    16:00 +20°C° 0 mm 3 m/S 481 mmHg 19%
    17:00 +20°C° 0 mm 3 m/S 481 mmHg 19%
    18:00 +18°C° 0 mm 4 m/S 480 mmHg 29%
    19:00 +15°C° 0 mm 5 m/S 479 mmHg 39%
    20:00 +13°C° 0 mm 6 m/S 478 mmHg 49%
    21:00 +12°C° 0 mm 5 m/S 478 mmHg 54%
    22:00 +10°C° 0 mm 5 m/S 478 mmHg 59%
    23:00 +10°C° 0 mm 4 m/S 478 mmHg 64%

    24 Februar, Sonntag

    Zeit Temperatur Niederschläge Wind Luftdruck Luftfeuchtigkeit
    00:00 +10°C° 0 mm 4 m/S 477 mmHg 65%
    01:00 +10°C° 0 mm 4 m/S 477 mmHg 67%
    02:00 +9°C° 0 mm 3 m/S 476 mmHg 68%
    03:00 +9°C° 0 mm 3 m/S 476 mmHg 70%
    04:00 +8°C° 0 mm 3 m/S 476 mmHg 73%
    05:00 +8°C° 0 mm 2 m/S 476 mmHg 75%
    06:00 +9°C° 0 mm 2 m/S 476 mmHg 72%
    07:00 +9°C° 0 mm 2 m/S 477 mmHg 69%
    08:00 +10°C° 0 mm 2 m/S 478 mmHg 65%
    09:00 +13°C° 0 mm 2 m/S 478 mmHg 56%
    10:00 +15°C° 0 mm 2 m/S 479 mmHg 47%
    11:00 +17°C° 0 mm 2 m/S 480 mmHg 38%
    12:00 +18°C° 0 mm 2 m/S 480 mmHg 33%
    13:00 +19°C° 0 mm 3 m/S 480 mmHg 29%
    14:00 +20°C° 0 mm 3 m/S 480 mmHg 24%
    15:00 +20°C° 0 mm 4 m/S 480 mmHg 24%
    16:00 +20°C° 0 mm 4 m/S 480 mmHg 25%
    17:00 +20°C° 0 mm 4 m/S 479 mmHg 25%
    18:00 +17°C° 0.1 mm 5 m/S 478 mmHg 37%
    19:00 +15°C° 0.1 mm 6 m/S 477 mmHg 48%
    20:00 +11°C° 0.1 mm 7 m/S 476 mmHg 59%
    21:00 +10°C° 0 mm 6 m/S 476 mmHg 61%
    22:00 +10°C° 0 mm 6 m/S 476 mmHg 63%
    23:00 +9°C° 0 mm 5 m/S 477 mmHg 65%
    Mehr zeigen